This is the latest recevied weather packets stored in our database for station/object VE2CSM-13. If no packets are shown the sender has not sent any weather packets the latest 10 day(s).
| Time | Temp. | Humidity | Pressure | Rain* | Wind** | Luminosity | Snow |
|---|---|---|---|---|---|---|---|
| 1778049906 | 11.11° C | 76% | 1017.6 hPa | 0 mm | - | - | - |
| 1778049420 | 10.56° C | 77% | 1017 hPa | 0 mm | - | - | - |
| 1778048941 | 10.56° C | 78% | 1017.2 hPa | 0 mm | - | - | - |
| 1778048700 | 11.11° C | 77% | 1017 hPa | 0 mm | - | - | - |
| 1778048461 | 11.11° C | 77% | 1017 hPa | 0 mm | - | - | - |
| 1778047982 | 10.56° C | 77% | 1017.2 hPa | 0 mm | - | - | - |
| 1778047861 | 10.56° C | 77% | 1017.2 hPa | 0 mm | - | - | - |
| 1778047741 | 10.56° C | 77% | 1017.2 hPa | 0 mm | - | - | - |
| 1778047501 | 11.11° C | 77% | 1016.8 hPa | 0 mm | - | - | - |
| 1778047441 | 11.11° C | 77% | 1016.8 hPa | 0 mm | - | - | - |
| 1778047381 | 11.11° C | 77% | 1016.8 hPa | 0 mm | - | - | - |
| 1778047320 | 11.11° C | 77% | 1016.8 hPa | 0 mm | - | - | - |
| 1778046756 | 11.11° C | 76% | 1016.9 hPa | 0 mm | - | - | - |
| 1778044957 | 10.56° C | 83% | 1016.6 hPa | 0 mm | - | - | - |
| 1778043156 | 10.56° C | 87% | 1016.4 hPa | 0 mm | - | - | - |
| 1778041356 | 11.11° C | 86% | 1016 hPa | 0 mm | - | - | - |
| 1778039557 | 11.67° C | 87% | 1015.5 hPa | 0 mm | - | - | - |
| 1778037756 | 11.11° C | 90% | 1015.1 hPa | 0 mm | - | - | - |
| 1778035956 | 11.67° C | 90% | 1014.8 hPa | 0 mm | - | - | - |
| 1778034156 | 12.22° C | 91% | 1014.2 hPa | 0 mm | - | - | - |
| 1778032356 | 12.78° C | 90% | 1014 hPa | 0.25 mm | - | - | - |
| 1778031400 | 12.78° C | 90% | 1014.1 hPa | 0.51 mm | - | - | - |
| 1778030436 | 12.78° C | 92% | 1013.9 hPa | 0.51 mm | - | - | - |
| 1778029477 | 12.78° C | 92% | 1013.6 hPa | 0.25 mm | - | - | - |
| 1778028997 | 12.78° C | 92% | 1013.5 hPa | 0.25 mm | - | - | - |
* Rain latest hour (hover to see other rain measurements)
** Current wind speed in m/s (hover to see current wind gust speed)